Location: Ahausen
(50.4985°N, 8.2722°E)
Time: 19:17:31
(UTC+00:00)

YUBILEINY - Pass Details

Date: 03 July 2022
Orbit: 1478 x 1509 km, 82.5° (Epoch: 08 August)

Event Time Altitude Azimuth Distance (km) Brightness Sun altitude
Rises 00:16:22 0° 347° (NNW) 4,658 ? -15.8°
Reaches altitude 10° 00:22:26 10° 18° (NNE) 3,667 ? -15.7°
Maximum altitude 00:25:10 12° 37° (NE) 3,537 ? -15.6°
Drops below altitude 10° 00:27:53 10° 55° (NE) 3,656 ? -15.5°
Sets 00:33:51 0° 87° (E) 4,623 ? -15.2°
